Back to catalog

HULIANWANG DIGUI-165

AliveCommunicationsPO
NORAD 68657·PAYLOAD·🇨🇳 China

Launched Apr 8, 2026 from Taiyuan Satellite Launch Center

Loading…

Next Passes (next 24 hours)

TLE

FreshSource: Space-Track

Epoch: Sep 14, 2026, 13:38 UTC

1 68657U 26076B   26257.56825704  .00000034  00000-0  45129-4 0  9994
2 68657  86.5048  13.7277 0001256 108.5964 251.5307 13.24409760 21203

Track HULIANWANG DIGUI-165 in real time with AllMySat

Download on the App Store